FW9794 Weather Reports


Display with metric or nautical units.
time (UTC)temp
F
wind
direction
speed
MPH
gust
MPH
rain 1hr
in
rain 24hr
in
rain mn
in
humidity
%
barometer
mb
20260505102048 48 0 0.0 0.0 0.00 0.00 0.00 90 1012.8
20260505101556 48 0 0.0 0.0 0.00 0.00 0.00 90 1012.8
20260505101048 49 0 0.0 0.0 0.00 0.00 0.00 88 1012.7
20260505100547 49 0 0.0 0.0 0.00 0.00 0.00 88 1012.7
20260505100055 49 0 0.0 0.0 0.00 0.00 0.00 88 1012.7
20260505095549 49 0 0.0 0.0 0.00 0.00 0.00 88 1012.6
20260505095046 50 0 0.0 0.0 0.00 0.00 0.00 89 1012.8
20260505094552 50 0 0.0 0.0 0.00 0.00 0.00 88 1012.7
20260505094048 50 0 0.0 1.0 0.00 0.00 0.00 88 1012.7
20260505093548 50 0 0.0 1.0 0.00 0.00 0.00 88 1012.8
20260505093050 50 0 0.0 1.0 0.00 0.00 0.00 88 1012.8
20260505092547 50 0 0.0 0.0 0.00 0.00 0.00 88 1012.8
20260505092048 50 0 0.0 0.0 0.00 0.00 0.00 87 1012.8
20260505091550 50 0 0.0 0.0 0.00 0.00 0.00 87 1012.8
20260505091048 50 0 0.0 1.0 0.00 0.00 0.00 87 1012.7
20260505090545 50 0 0.0 2.0 0.00 0.00 0.00 87 1012.7
20260505090100 50 0 0.0 2.0 0.00 0.00 0.00 87 1012.6
20260505085546 50 360 0.0 2.0 0.00 0.00 0.00 88 1012.6
20260505085046 50 0 1.0 2.0 0.00 0.00 0.00 89 1012.5
20260505084554 50 360 0.0 2.0 0.00 0.00 0.00 89 1012.5
20260505084047 50 0 0.0 2.0 0.00 0.00 0.00 90 1012.5
20260505083549 50 0 0.0 2.0 0.00 0.00 0.00 88 1012.4
20260505083056 50 0 0.0 2.0 0.00 0.00 0.00 88 1012.3
20260505082546 50 360 0.0 2.0 0.00 0.00 0.00 88 1012.3
20260505082049 51 360 0.0 1.0 0.00 0.00 0.00 86 1012.2
20260505081557 51 360 0.0 1.0 0.00 0.00 0.00 85 1012.2
20260505081046 51 0 0.0 2.0 0.00 0.00 0.00 85 1012.2
20260505080545 51 360 0.0 2.0 0.00 0.00 0.00 86 1012.2
20260505080054 51 0 1.0 2.0 0.00 0.00 0.00 86 1012.2
20260505075549 51 360 0.0 1.0 0.00 0.00 0.00 85 1012.2
20260505075049 51 0 0.0 1.0 0.00 0.00 0.00 84 1012.1
20260505074552 51 0 0.0 1.0 0.00 0.00 0.00 84 1012.1
20260505074048 51 0 0.0 1.0 0.00 0.00 0.00 84 1012.1
20260505073550 51 0 0.0 1.0 0.00 0.00 0.00 84 1012.2
20260505073053 51 0 0.0 1.0 0.00 0.00 0.00 85 1012.2
20260505072551 51 0 0.0 1.0 0.00 0.00 0.00 85 1012.2
20260505072048 52 0 0.0 2.0 0.00 0.00 0.00 85 1012.3
20260505071554 52 0 0.0 2.0 0.00 0.00 0.00 86 1012.3
20260505071048 52 360 0.0 2.0 0.00 0.00 0.00 86 1012.4
20260505070549 52 0 0.0 2.0 0.00 0.00 0.00 86 1012.3
20260505070051 52 0 0.0 2.0 0.00 0.00 0.00 86 1012.4
20260505065549 52 360 0.0 2.0 0.00 0.00 0.00 86 1012.5
20260505065046 52 0 0.0 1.0 0.00 0.00 0.00 84 1012.5
20260505064554 52 0 0.0 1.0 0.00 0.00 0.00 84 1012.5
20260505064046 52 0 0.0 0.0 0.00 0.00 0.00 85 1012.4
20260505063546 52 0 0.0 0.0 0.00 0.00 0.00 85 1012.4
20260505063052 52 0 0.0 0.0 0.00 0.00 0.00 85 1012.4
20260505062550 53 0 0.0 0.0 0.00 0.00 0.00 84 1012.4
20260505062048 53 0 0.0 3.0 0.00 0.00 0.00 83 1012.3
20260505061552 53 0 0.0 3.0 0.00 0.00 0.00 84 1012.3
20260505061049 53 360 1.0 3.0 0.00 0.00 0.00 84 1012.2
20260505060548 53 360 0.0 3.0 0.00 0.00 0.00 84 1012.3
20260505060056 53 360 1.0 3.0 0.00 0.00 0.00 83 1012.3
20260505055549 53 360 0.0 1.0 0.00 0.00 0.00 82 1012.2
20260505055049 54 0 0.0 1.0 0.00 0.00 0.00 81 1012.2
20260505054554 54 0 0.0 2.0 0.00 0.00 0.00 82 1012.1
20260505054048 54 0 0.0 2.0 0.00 0.00 0.00 81 1012.2
20260505053549 54 360 0.0 2.0 0.00 0.00 0.00 81 1012.2
20260505053105 54 0 0.0 3.0 0.00 0.00 0.00 82 1012.2
20260505052545 54 0 1.0 3.0 0.00 0.00 0.00 82 1012.1
20260505052046 54 0 0.0 2.0 0.00 0.00 0.00 82 1012.0
20260505051553 54 360 0.0 2.0 0.00 0.00 0.00 80 1011.9
20260505051050 55 360 0.0 2.0 0.00 0.00 0.00 81 1011.9
20260505050548 55 0 0.0 2.0 0.00 0.00 0.00 81 1011.9
20260505041553 58 0 0.0 1.0 0.00 0.00 0.00 73 1012.0
20260505041049 58 360 0.0 1.0 0.00 0.00 0.00 71 1011.9
20260505040553 59 0 0.0 1.0 0.00 0.00 0.00 71 1011.9
20260505040053 59 0 0.0 2.0 0.00 0.00 0.00 68 1011.9
20260505035549 59 0 0.0 2.0 0.00 0.00 0.00 69 1012.0
20260505035053 59 360 0.0 2.0 0.00 0.00 0.00 69 1012.0
20260505034550 59 360 1.0 2.0 0.00 0.00 0.00 69 1012.0
20260505034049 60 360 1.0 2.0 0.00 0.00 0.00 68 1012.1
20260505033548 60 0 0.0 2.0 0.00 0.00 0.00 67 1011.9
20260505033112 60 0 0.0 2.0 0.00 0.00 0.00 67 1011.9
20260505032548 60 0 0.0 2.0 0.00 0.00 0.00 67 1012.0
20260505032048 60 360 0.0 2.0 0.00 0.00 0.00 66 1012.2
20260505031556 60 0 0.0 2.0 0.00 0.00 0.00 67 1012.3
20260505031051 60 360 0.0 2.0 0.00 0.00 0.00 66 1012.1
20260505030553 61 0 0.0 1.0 0.00 0.00 0.00 66 1012.1
20260505030053 61 0 0.0 1.0 0.00 0.00 0.00 65 1012.2
20260505025546 61 0 0.0 1.0 0.00 0.00 0.00 66 1012.2
20260505025048 62 0 0.0 0.0 0.00 0.00 0.00 64 1012.2
20260505024600 62 0 0.0 1.0 0.00 0.00 0.00 63 1012.2
20260505024049 62 0 0.0 1.0 0.00 0.00 0.00 64 1012.3
20260505023549 62 0 0.0 1.0 0.00 0.00 0.00 63 1012.5
20260505023107 63 0 0.0 1.0 0.00 0.00 0.00 62 1012.5
20260505022551 63 0 0.0 1.0 0.00 0.00 0.00 62 1012.5
20260505022052 63 0 0.0 1.0 0.00 0.00 0.00 62 1012.5
20260505021553 63 0 0.0 2.0 0.00 0.00 0.00 61 1012.5
20260505021049 63 0 0.0 2.0 0.00 0.00 0.00 61 1012.5
20260505020549 64 0 0.0 1.0 0.00 0.00 0.00 60 1012.4
20260505020055 64 0 0.0 0.0 0.00 0.00 0.00 60 1012.3
20260505015547 64 0 0.0 1.0 0.00 0.00 0.00 59 1012.3
20260505015049 65 0 0.0 1.0 0.00 0.00 0.00 58 1012.4
20260505014552 65 0 0.0 1.0 0.00 0.00 0.00 58 1012.3
20260505014046 65 0 0.0 1.0 0.00 0.00 0.00 56 1012.2
20260505013546 66 0 0.0 1.0 0.00 0.00 0.00 56 1012.2
20260505013055 66 0 0.0 1.0 0.00 0.00 0.00 55 1012.1
20260505012548 67 0 0.0 3.0 0.00 0.00 0.00 55 1012.1
20260505012047 67 360 0.0 3.0 0.00 0.00 0.00 54 1012.0
20260505011558 67 0 0.0 3.0 0.00 0.00 0.00 53 1011.9
20260505011049 68 0 0.0 3.0 0.00 0.00 0.00 53 1011.9
20260505010548 68 0 0.0 3.0 0.00 0.00 0.00 52 1011.9
20260505010058 68 0 0.0 3.0 0.00 0.00 0.00 51 1011.8
20260505005545 69 0 0.0 1.0 0.00 0.00 0.00 51 1011.8
20260505005049 69 0 0.0 1.0 0.00 0.00 0.00 50 1011.6
20260505004559 69 0 0.0 1.0 0.00 0.00 0.00 50 1011.6
20260505004053 70 360 0.0 3.0 0.00 0.00 0.00 49 1011.6
20260505003549 70 0 0.0 3.0 0.00 0.00 0.00 48 1011.7
20260505003057 71 360 0.0 3.0 0.00 0.00 0.00 48 1011.6
20260505002548 71 0 0.0 3.0 0.00 0.00 0.00 47 1011.6
20260505002047 71 360 0.0 3.0 0.00 0.00 0.00 47 1011.6
20260505001553 72 360 1.0 3.0 0.00 0.00 0.00 47 1011.6
20260505001046 72 0 0.0 3.0 0.00 0.00 0.00 47 1011.6
20260505000553 73 360 1.0 6.0 0.00 0.00 0.00 47 1011.6
20260505000059 73 360 0.0 6.0 0.00 0.00 0.00 46 1011.6
20260504235549 73 360 1.0 6.0 0.00 0.00 0.00 45 1011.5
20260504235049 73 360 2.0 10.0 0.00 0.00 0.00 45 1011.6
20260504234617 73 360 1.0 10.0 0.00 0.00 0.00 46 1011.4
20260504234045 74 360 2.0 9.0 0.00 0.00 0.00 46 1011.2
20260504233546 74 360 3.0 8.0 0.00 0.00 0.00 45 1011.2
20260504233056 74 360 2.0 6.0 0.00 0.00 0.00 46 1011.2
20260504232546 75 360 2.0 6.0 0.00 0.00 0.00 46 1011.1
20260504232049 75 254 1.0 7.0 0.00 0.00 0.00 47 1011.2
20260504231556 75 263 1.0 7.0 0.00 0.00 0.00 48 1011.1
20260504231049 75 360 1.0 4.0 0.00 0.00 0.00 47 1011.1
20260504230549 75 360 0.0 4.0 0.00 0.00 0.00 46 1011.2
20260504230053 75 360 1.0 8.0 0.00 0.00 0.00 46 1011.2
20260504225546 75 360 1.0 8.0 0.00 0.00 0.00 46 1011.2
20260504225049 75 360 2.0 8.0 0.00 0.00 0.00 46 1011.3
20260504224600 75 360 2.0 10.0 0.00 0.00 0.00 46 1011.3
20260504224050 75 360 2.0 10.0 0.00 0.00 0.00 46 1011.3
20260504223546 76 360 3.0 10.0 0.00 0.00 0.00 45 1011.3
20260504223052 76 360 2.0 9.0 0.00 0.00 0.00 45 1011.3
20260504222549 76 274 2.0 11.0 0.00 0.00 0.00 45 1011.3
20260504222049 76 204 3.0 11.0 0.00 0.00 0.00 44 1011.2
20260504221602 76 234 2.0 11.0 0.00 0.00 0.00 45 1011.3
20260504221049 76 307 3.0 13.0 0.00 0.00 0.00 45 1011.4
20260504220549 77 234 6.0 14.0 0.00 0.00 0.00 43 1011.3
20260504220058 77 244 5.0 14.0 0.00 0.00 0.00 44 1011.3
20260504215549 77 194 5.0 14.0 0.00 0.00 0.00 42 1011.4
20260504215047 77 230 9.0 15.0 0.00 0.00 0.00 42 1011.3
20260504214556 77 360 5.0 15.0 0.00 0.00 0.00 42 1011.4
20260504214048 77 278 7.0 16.0 0.00 0.00 0.00 41 1011.2
20260504213548 77 260 9.0 16.0 0.00 0.00 0.00 43 1011.4
20260504213103 77 212 5.0 13.0 0.00 0.00 0.00 43 1011.3
20260504212548 77 276 4.0 16.0 0.00 0.00 0.00 42 1011.4
20260504212045 78 196 7.0 16.0 0.00 0.00 0.00 41 1011.5
20260504211553 78 196 7.0 15.0 0.00 0.00 0.00 40 1011.3
20260504211048 78 243 2.0 11.0 0.00 0.00 0.00 44 1011.5
20260504210546 78 255 3.0 12.0 0.00 0.00 0.00 42 1011.6
20260504210057 78 238 3.0 15.0 0.00 0.00 0.00 43 1011.5
20260504205551 78 254 6.0 15.0 0.00 0.00 0.00 42 1011.7
20260504205053 78 275 2.0 12.0 0.00 0.00 0.00 42 1011.7
20260504204636 78 198 4.0 12.0 0.00 0.00 0.00 43 1011.8
20260504204048 78 251 3.0 18.0 0.00 0.00 0.00 42 1011.9
20260504203552 77 234 8.0 18.0 0.00 0.00 0.00 44 1011.9
20260504203051 78 258 9.0 14.0 0.00 0.00 0.00 44 1011.9
20260504202548 78 360 3.0 14.0 0.00 0.00 0.00 45 1012.0
20260504202049 79 360 8.0 14.0 0.00 0.00 0.00 43 1012.0
20260504201556 79 273 3.0 7.0 0.00 0.00 0.00 40 1012.1
20260504201048 79 197 2.0 14.0 0.00 0.00 0.00 41 1012.1
20260504200548 79 222 3.0 14.0 0.00 0.00 0.00 41 1012.2
20260504200057 79 221 7.0 13.0 0.00 0.00 0.00 42 1012.2
20260504195547 80 274 3.0 11.0 0.00 0.00 0.00 42 1012.2
20260504195049 81 212 3.0 11.0 0.00 0.00 0.00 43 1012.4
20260504194556 81 203 2.0 7.0 0.00 0.00 0.00 45 1012.4
20260504194046 80 202 2.0 13.0 0.00 0.00 0.00 44 1012.5
20260504193546 80 258 2.0 13.0 0.00 0.00 0.00 44 1012.6
20260504193055 80 296 2.0 11.0 0.00 0.00 0.00 46 1012.7
20260504192545 79 360 4.0 11.0 0.00 0.00 0.00 43 1012.8
20260504192048 79 360 4.0 9.0 0.00 0.00 0.00 44 1012.9
20260504191559 80 360 3.0 8.0 0.00 0.00 0.00 43 1012.9
20260504191047 80 360 3.0 6.0 0.00 0.00 0.00 42 1013.0
20260504190547 80 360 1.0 11.0 0.00 0.00 0.00 46 1013.1
20260504190100 79 360 2.0 13.0 0.00 0.00 0.00 46 1013.2
20260504185546 79 360 5.0 13.0 0.00 0.00 0.00 46 1013.3
20260504185048 79 360 3.0 10.0 0.00 0.00 0.00 44 1013.2
20260504184604 79 360 3.0 12.0 0.00 0.00 0.00 46 1013.4
20260504184048 79 360 1.0 13.0 0.00 0.00 0.00 46 1013.4
20260504183546 79 360 6.0 13.0 0.00 0.00 0.00 46 1013.5
20260504183059 79 360 6.0 13.0 0.00 0.00 0.00 44 1013.6
20260504182550 80 360 2.0 9.0 0.00 0.00 0.00 44 1013.7
20260504182045 80 360 4.0 9.0 0.00 0.00 0.00 45 1013.9
20260504181551 80 360 2.0 12.0 0.00 0.00 0.00 45 1013.8
20260504181048 80 360 2.0 12.0 0.00 0.00 0.00 45 1013.8
20260504180546 80 360 4.0 15.0 0.00 0.00 0.00 43 1014.0
20260504180054 80 360 5.0 15.0 0.00 0.00 0.00 43 1014.0
20260504175549 80 360 4.0 9.0 0.00 0.00 0.00 45 1014.0
20260504175047 79 360 1.0 9.0 0.00 0.00 0.00 47 1013.9
20260504174555 78 360 3.0 16.0 0.00 0.00 0.00 44 1014.0
20260504174047 79 360 7.0 16.0 0.00 0.00 0.00 44 1014.0
20260504173546 80 360 3.0 10.0 0.00 0.00 0.00 43 1014.1
20260504173054 80 360 3.0 10.0 0.00 0.00 0.00 42 1014.2
20260504172547 80 360 3.0 9.0 0.00 0.00 0.00 43 1014.3
20260504172046 81 360 2.0 9.0 0.00 0.00 0.00 43 1014.4
20260504171556 80 360 2.0 9.0 0.00 0.00 0.00 42 1014.4
20260504171046 80 360 2.0 11.0 0.00 0.00 0.00 43 1014.4
20260504170545 79 360 2.0 11.0 0.00 0.00 0.00 44 1014.5
20260504151046 71 360 3.0 8.0 0.00 0.00 0.00 53 1016.0
20260504150546 70 0 1.0 8.0 0.00 0.00 0.00 58 1016.0
20260504141048 59 360 0.0 4.0 0.00 0.00 0.00 72 1016.9
20260504140548 59 360 1.0 4.0 0.00 0.00 0.00 72 1016.8
20260504130552 51 360 0.0 2.0 0.00 0.00 0.00 83 1017.1
20260504110549 40 0 0.0 1.0 0.00 0.00 0.00 94 1015.6